GW2746 Weather Reports


Display with metric or nautical units.
time (UTC)temp
F
wind
direction
speed
MPH
gust
MPH
rain 1hr
in
rain 24hr
in
rain mn
in
humidity
%
barometer
mb
20260509121143 47 57 0.0 0.0 0.00 0.00 0.00 78 1008.7
20260509120626 47 57 0.0 0.0 0.00 0.00 0.00 78 1008.7
20260509120125 47 57 0.0 0.0 0.00 0.00 0.00 77 1008.5
20260509115630 47 57 0.0 0.0 0.00 0.00 0.00 77 1008.5
20260509115133 47 57 0.0 0.0 0.00 0.00 0.00 76 1008.4
20260509114617 47 57 0.0 0.0 0.00 0.00 0.00 76 1008.3
20260509114134 47 57 0.0 0.0 0.00 0.00 0.00 76 1008.3
20260509113620 47 57 0.0 0.0 0.00 0.00 0.00 76 1008.3
20260509113119 46 57 0.0 0.0 0.00 0.00 0.00 76 1008.3
20260509112647 46 57 0.0 0.0 0.00 0.00 0.00 76 1008.2
20260509112127 46 57 0.0 0.0 0.00 0.00 0.00 76 1008.2
20260509111652 46 57 0.0 0.0 0.00 0.00 0.00 76 1008.2
20260509111131 46 57 0.0 0.0 0.00 0.00 0.00 76 1008.1
20260509110618 46 57 0.0 0.0 0.00 0.00 0.00 76 1008.1
20260509110117 46 57 0.0 0.0 0.00 0.00 0.00 76 1008.1
20260509105622 46 57 0.0 0.0 0.00 0.00 0.00 76 1008.0
20260509105125 46 57 0.0 0.0 0.00 0.00 0.00 75 1008.1
20260509104632 47 57 0.0 0.0 0.00 0.00 0.00 75 1008.1
20260509104115 47 57 0.0 0.0 0.00 0.00 0.00 75 1008.1
20260509103625 47 57 0.0 0.0 0.00 0.00 0.00 75 1008.1
20260509103122 47 57 0.0 0.0 0.00 0.00 0.00 75 1008.2
20260509102625 47 57 0.0 0.0 0.00 0.00 0.00 75 1008.1
20260509102121 47 57 0.0 0.0 0.00 0.00 0.00 74 1008.1
20260509101628 47 57 0.0 0.0 0.00 0.00 0.00 73 1008.1
20260509101125 47 57 0.0 0.0 0.00 0.00 0.00 73 1008.1
20260509100650 47 57 0.0 0.0 0.00 0.00 0.00 73 1008.1
20260509100128 47 57 0.0 0.0 0.00 0.00 0.00 73 1008.2
20260509095632 47 57 0.0 1.0 0.00 0.00 0.00 73 1008.2
20260509095134 47 57 0.0 1.0 0.00 0.00 0.00 73 1008.1
20260509094658 48 57 0.0 0.0 0.00 0.00 0.00 72 1008.2
20260509094120 48 57 0.0 0.0 0.00 0.00 0.00 71 1008.2
20260509093627 48 57 0.0 0.0 0.00 0.00 0.00 70 1008.1
20260509093125 48 57 0.0 0.0 0.00 0.00 0.00 70 1008.1
20260509092648 48 57 0.0 0.0 0.00 0.00 0.00 69 1008.0
20260509092126 48 57 0.0 0.0 0.00 0.00 0.00 69 1008.0
20260509091633 48 57 0.0 0.0 0.00 0.00 0.00 70 1008.0
20260509091132 48 57 0.0 0.0 0.00 0.00 0.00 69 1008.1
20260509090619 49 57 0.0 0.0 0.00 0.00 0.00 68 1008.1
20260509090142 49 57 0.0 0.0 0.00 0.00 0.00 68 1008.0
20260509085628 49 57 0.0 0.0 0.00 0.00 0.00 66 1008.0
20260509085127 50 57 0.0 0.0 0.00 0.00 0.00 66 1008.0
20260509084633 50 57 0.0 0.0 0.00 0.00 0.00 65 1007.8
20260509084134 50 57 0.0 1.0 0.00 0.00 0.00 65 1007.8
20260509083619 50 57 0.0 1.0 0.00 0.00 0.00 66 1007.9
20260509083117 50 57 0.0 0.0 0.00 0.00 0.00 65 1007.9
20260509082625 51 57 0.0 0.0 0.00 0.00 0.00 64 1007.9
20260509082143 51 57 0.0 0.0 0.00 0.00 0.00 64 1007.9
20260509081626 51 57 0.0 0.0 0.00 0.00 0.00 63 1007.9
20260509081126 51 57 0.0 0.0 0.00 0.00 0.00 63 1007.8
20260509080655 52 57 0.0 0.0 0.00 0.00 0.00 62 1007.9
20260509080132 52 57 0.0 2.0 0.00 0.00 0.00 62 1007.8
20260509075620 52 57 0.0 2.0 0.00 0.00 0.00 61 1007.9
20260509075119 53 57 0.0 0.0 0.00 0.00 0.00 61 1007.9
20260509074622 53 57 0.0 0.0 0.00 0.00 0.00 59 1007.9
20260509074119 53 57 0.0 0.0 0.00 0.00 0.00 58 1007.9
20260509073627 54 57 0.0 0.0 0.00 0.00 0.00 57 1007.8
20260509073127 54 57 0.0 0.0 0.00 0.00 0.00 56 1007.9
20260509072633 55 57 0.0 0.0 0.00 0.00 0.00 55 1007.9
20260509072134 55 57 0.0 1.0 0.00 0.00 0.00 54 1007.9
20260509071617 56 57 0.0 1.0 0.00 0.00 0.00 53 1007.9
20260509071137 56 57 0.0 0.0 0.00 0.00 0.00 52 1007.9
20260509070624 57 57 0.0 0.0 0.00 0.00 0.00 50 1008.0
20260509070125 58 57 0.0 0.0 0.00 0.00 0.00 49 1008.0
20260509065633 58 57 0.0 1.0 0.00 0.00 0.00 48 1008.0
20260509065150 59 57 0.0 1.0 0.00 0.00 0.00 48 1008.0
20260509064634 59 57 0.0 2.0 0.00 0.00 0.00 46 1008.0
20260509064132 60 57 0.0 2.0 0.00 0.00 0.00 46 1008.0
20260509063619 60 92 1.0 2.0 0.00 0.00 0.00 45 1008.1
20260509063119 60 89 0.0 2.0 0.00 0.00 0.00 44 1008.0
20260509062624 61 89 0.0 3.0 0.00 0.00 0.00 44 1008.1
20260509062121 61 89 0.0 3.0 0.00 0.00 0.00 43 1008.0
20260509061625 61 44 0.0 3.0 0.00 0.00 0.00 43 1008.1
20260509061125 61 341 0.0 3.0 0.00 0.00 0.00 43 1008.0
20260509060632 61 9 0.0 2.0 0.00 0.00 0.00 42 1008.1
20260509060151 62 29 0.0 2.0 0.00 0.00 0.00 42 1008.1
20260509055633 62 9 1.0 4.0 0.00 0.00 0.00 42 1008.1
20260509055148 62 354 2.0 4.0 0.00 0.00 0.00 42 1008.0
20260509054652 62 332 0.0 3.0 0.00 0.00 0.00 42 1008.0
20260509054152 62 249 1.0 6.0 0.00 0.00 0.00 41 1008.0
20260509053634 63 312 1.0 6.0 0.00 0.00 0.00 41 1007.9
20260509053114 63 270 2.0 4.0 0.00 0.00 0.00 41 1008.0
20260509052622 63 322 2.0 4.0 0.00 0.00 0.00 41 1007.9
20260509052143 63 332 2.0 4.0 0.00 0.00 0.00 40 1007.8
20260509051629 64 327 1.0 6.0 0.00 0.00 0.00 40 1007.8
20260509051132 64 312 1.0 6.0 0.00 0.00 0.00 39 1007.8
20260509050628 64 2 2.0 6.0 0.00 0.00 0.00 39 1007.8
20260509050133 64 329 2.0 6.0 0.00 0.00 0.00 39 1007.7
20260509045626 64 327 1.0 4.0 0.00 0.00 0.00 39 1007.7
20260509045127 64 300 1.0 5.0 0.00 0.00 0.00 38 1007.7
20260509044629 65 216 1.0 5.0 0.00 0.00 0.00 38 1007.7
20260509044131 64 310 3.0 5.0 0.00 0.00 0.00 38 1007.7
20260509043655 64 312 2.0 4.0 0.00 0.00 0.00 39 1007.6
20260509043133 63 325 2.0 4.0 0.00 0.00 0.00 39 1007.6
20260509042624 63 305 0.0 2.0 0.00 0.00 0.00 40 1007.5
20260509042125 62 300 1.0 2.0 0.00 0.00 0.00 40 1007.6
20260509041630 62 297 0.0 1.0 0.00 0.00 0.00 41 1007.6
20260509041127 62 313 0.0 2.0 0.00 0.00 0.00 41 1007.6
20260509040629 62 312 0.0 2.0 0.00 0.00 0.00 40 1007.6
20260509040132 61 289 0.0 1.0 0.00 0.00 0.00 41 1007.6
20260509035641 61 289 0.0 1.0 0.00 0.00 0.00 42 1007.6
20260509035120 61 289 0.0 1.0 0.00 0.00 0.00 43 1007.6
20260509034625 62 289 0.0 0.0 0.00 0.00 0.00 43 1007.5
20260509034125 62 289 0.0 0.0 0.00 0.00 0.00 43 1007.5
20260509033649 62 289 0.0 0.0 0.00 0.00 0.00 43 1007.5
20260509033146 62 289 0.0 0.0 0.00 0.00 0.00 43 1007.4
20260509032623 63 289 0.0 0.0 0.00 0.00 0.00 43 1007.4
20260509032121 63 289 0.0 1.0 0.00 0.00 0.00 43 1007.4
20260509031625 64 289 0.0 1.0 0.00 0.00 0.00 41 1007.4
20260509031127 64 289 0.0 0.0 0.00 0.00 0.00 41 1007.3
20260509030651 64 289 0.0 1.0 0.00 0.00 0.00 40 1007.3
20260509030133 64 289 1.0 1.0 0.00 0.00 0.00 39 1007.2
20260509025635 64 289 0.0 2.0 0.00 0.00 0.00 39 1007.1
20260509025115 64 289 0.0 2.0 0.00 0.00 0.00 40 1007.0
20260509024621 65 313 1.0 1.0 0.00 0.00 0.00 39 1007.1
20260509024118 65 293 0.0 0.0 0.00 0.00 0.00 39 1006.9
20260509023647 65 293 0.0 0.0 0.00 0.00 0.00 39 1006.9
20260509023126 66 293 0.0 0.0 0.00 0.00 0.00 38 1006.7
20260509022631 67 293 0.0 0.0 0.00 0.00 0.00 37 1006.6
20260509022128 67 293 0.0 0.0 0.00 0.00 0.00 36 1006.6
20260509021631 68 293 0.0 0.0 0.00 0.00 0.00 35 1006.5
20260509021131 69 293 0.0 0.0 0.00 0.00 0.00 34 1006.4
20260509020635 70 293 0.0 0.0 0.00 0.00 0.00 32 1006.3
20260509020134 70 293 0.0 0.0 0.00 0.00 0.00 31 1006.3
20260509015624 71 293 0.0 2.0 0.00 0.00 0.00 30 1006.2
20260509015121 71 293 0.0 2.0 0.00 0.00 0.00 29 1006.2
20260509014625 72 311 1.0 2.0 0.00 0.00 0.00 29 1006.2
20260509014146 72 285 0.0 6.0 0.00 0.00 0.00 29 1006.2
20260509013631 72 268 0.0 6.0 0.00 0.00 0.00 29 1006.1
20260509013149 73 306 1.0 3.0 0.00 0.00 0.00 29 1006.1
20260509012632 73 316 1.0 7.0 0.00 0.00 0.00 29 1006.0
20260509012131 74 300 2.0 7.0 0.00 0.00 0.00 29 1006.0
20260509011634 74 253 2.0 5.0 0.00 0.00 0.00 28 1005.9
20260509011116 74 286 1.0 6.0 0.00 0.00 0.00 28 1005.9
20260509010624 75 309 3.0 7.0 0.00 0.00 0.00 28 1005.9
20260509010126 75 261 1.0 7.0 0.00 0.00 0.00 28 1005.9
20260509005633 75 286 1.0 5.0 0.00 0.00 0.00 28 1005.8
20260509005132 76 297 1.0 10.0 0.00 0.00 0.00 28 1005.8
20260509004656 76 263 1.0 10.0 0.00 0.00 0.00 29 1005.8
20260509004132 76 212 1.0 8.0 0.00 0.00 0.00 28 1005.7
20260509003635 76 217 3.0 8.0 0.00 0.00 0.00 30 1005.7
20260509003133 76 254 3.0 7.0 0.00 0.00 0.00 31 1005.7
20260509002620 76 267 2.0 11.0 0.00 0.00 0.00 31 1005.7
20260509002139 76 201 3.0 11.0 0.00 0.00 0.00 32 1005.6
20260509001645 76 267 2.0 4.0 0.00 0.00 0.00 33 1005.6
20260509001121 76 200 2.0 5.0 0.00 0.00 0.00 33 1005.6
20260509000628 75 260 1.0 6.0 0.00 0.00 0.00 33 1005.6
20260509000125 75 272 2.0 5.0 0.00 0.00 0.00 33 1005.7
20260508235648 75 317 4.0 5.0 0.00 0.00 0.00 33 1005.6
20260508235127 75 239 2.0 4.0 0.00 0.00 0.00 33 1005.7
20260508234618 75 280 2.0 4.0 0.00 0.00 0.00 33 1005.7
20260508234120 75 229 2.0 4.0 0.00 0.00 0.00 33 1005.7
20260508233626 75 240 2.0 4.0 0.00 0.00 0.00 32 1005.8
20260508233144 75 227 2.0 4.0 0.00 0.00 0.00 32 1005.8
20260508232627 75 252 1.0 3.0 0.00 0.00 0.00 33 1005.8
20260508232128 75 248 0.0 8.0 0.00 0.00 0.00 33 1005.8
20260508231632 75 278 3.0 8.0 0.00 0.00 0.00 31 1005.8
20260508231133 75 271 3.0 8.0 0.00 0.00 0.00 32 1005.8
20260508230621 75 273 2.0 6.0 0.00 0.00 0.00 32 1005.8
20260508230124 75 283 2.0 10.0 0.00 0.00 0.00 32 1005.8
20260508225631 75 65 2.0 10.0 0.00 0.00 0.00 31 1005.9
20260508225129 75 293 4.0 8.0 0.00 0.00 0.00 32 1006.0
20260508224652 75 260 1.0 7.0 0.00 0.00 0.00 32 1005.9
20260508224128 76 273 3.0 6.0 0.00 0.00 0.00 32 1006.0
20260508223633 76 222 4.0 7.0 0.00 0.00 0.00 32 1006.0
20260508223129 76 243 4.0 7.0 0.00 0.00 0.00 31 1006.1
20260508222654 75 248 4.0 11.0 0.00 0.00 0.00 31 1006.2
20260508222132 76 294 4.0 11.0 0.00 0.00 0.00 31 1006.2
20260508221622 76 306 4.0 9.0 0.00 0.00 0.00 31 1006.1
20260508221120 77 241 2.0 6.0 0.00 0.00 0.00 31 1006.0
20260508220628 77 258 2.0 9.0 0.00 0.00 0.00 30 1006.2
20260508220127 78 200 4.0 9.0 0.00 0.00 0.00 31 1006.2
20260508215633 78 292 4.0 7.0 0.00 0.00 0.00 30 1006.2
20260508215155 77 249 2.0 7.0 0.00 0.00 0.00 30 1006.2
20260508214619 77 193 4.0 8.0 0.00 0.00 0.00 30 1006.3
20260508214136 77 268 3.0 8.0 0.00 0.00 0.00 31 1006.4
20260508213624 77 227 2.0 11.0 0.00 0.00 0.00 30 1006.4
20260508213120 78 277 3.0 11.0 0.00 0.00 0.00 28 1006.5
20260508212624 79 263 2.0 9.0 0.00 0.00 0.00 29 1006.5
20260508212122 79 242 4.0 9.0 0.00 0.00 0.00 29 1006.5
20260508211627 78 262 5.0 10.0 0.00 0.00 0.00 30 1006.7
20260508211133 78 225 5.0 10.0 0.00 0.00 0.00 29 1006.7
20260508210644 77 231 2.0 9.0 0.00 0.00 0.00 30 1006.8
20260508210128 76 257 4.0 12.0 0.00 0.00 0.00 30 1006.9
20260508205635 77 237 4.0 12.0 0.00 0.00 0.00 29 1006.8
20260508205134 77 209 4.0 13.0 0.00 0.00 0.00 29 1006.9
20260508204624 77 229 3.0 13.0 0.00 0.00 0.00 29 1007.1
20260508204124 77 204 3.0 9.0 0.00 0.00 0.00 31 1007.1
20260508203632 77 224 2.0 7.0 0.00 0.00 0.00 29 1007.3
20260508203133 77 350 2.0 7.0 0.00 0.00 0.00 28 1007.4
20260508202621 77 323 1.0 11.0 0.00 0.00 0.00 28 1007.4
20260508202119 77 259 4.0 11.0 0.00 0.00 0.00 29 1007.5
20260508201627 76 289 4.0 6.0 0.00 0.00 0.00 30 1007.6
20260508201127 76 264 2.0 11.0 0.00 0.00 0.00 30 1007.7
20260508200631 76 204 6.0 9.0 0.00 0.00 0.00 30 1007.8
20260508200115 76 146 1.0 5.0 0.00 0.00 0.00 29 1007.9
20260508195625 77 182 1.0 5.0 0.00 0.00 0.00 29 1008.0
20260508195140 77 63 1.0 5.0 0.00 0.00 0.00 30 1008.0
20260508194627 77 312 2.0 6.0 0.00 0.00 0.00 29 1008.0
20260508194126 76 170 1.0 6.0 0.00 0.00 0.00 30 1008.0
20260508193633 76 53 2.0 6.0 0.00 0.00 0.00 29 1008.2
20260508193134 76 73 2.0 5.0 0.00 0.00 0.00 30 1008.2
20260508192620 76 248 2.0 6.0 0.00 0.00 0.00 30 1008.3
20260508192118 75 19 2.0 6.0 0.00 0.00 0.00 30 1008.4
20260508191624 75 181 1.0 8.0 0.00 0.00 0.00 30 1008.4
20260508191140 76 357 1.0 5.0 0.00 0.00 0.00 29 1008.5
20260508190643 76 335 2.0 7.0 0.00 0.00 0.00 28 1008.5
20260508190125 75 24 2.0 8.0 0.00 0.00 0.00 30 1008.6
20260508185627 76 250 3.0 8.0 0.00 0.00 0.00 30 1008.6
20260508185127 75 210 2.0 8.0 0.00 0.00 0.00 31 1008.6
20260508184631 74 213 4.0 8.0 0.00 0.00 0.00 30 1008.6
20260508184130 74 110 3.0 6.0 0.00 0.00 0.00 30 1008.7
20260508183635 75 235 2.0 6.0 0.00 0.00 0.00 29 1008.8
20260508183155 74 82 1.0 5.0 0.00 0.00 0.00 32 1008.8
20260508182620 74 107 2.0 6.0 0.00 0.00 0.00 30 1008.9
20260508182118 73 260 2.0 6.0 0.00 0.00 0.00 31 1008.9
20260508181623 74 262 3.0 8.0 0.00 0.00 0.00 31 1009.0
20260508181122 74 151 2.0 8.0 0.00 0.00 0.00 31 1009.1
20260508180646 74 171 3.0 8.0 0.00 0.00 0.00 33 1009.1
20260508180121 73 167 3.0 7.0 0.00 0.00 0.00 33 1009.0
20260508175625 73 171 1.0 6.0 0.00 0.00 0.00 33 1009.2
20260508175126 73 129 3.0 6.0 0.00 0.00 0.00 33 1009.2
20260508174629 72 135 1.0 6.0 0.00 0.00 0.00 34 1009.3
20260508174126 71 205 3.0 6.0 0.00 0.00 0.00 35 1009.3
20260508173614 71 221 3.0 7.0 0.00 0.00 0.00 36 1009.4
20260508173120 71 132 3.0 5.0 0.00 0.00 0.00 36 1009.4
20260508172627 71 273 3.0 5.0 0.00 0.00 0.00 36 1009.5
20260508172126 71 317 2.0 5.0 0.00 0.00 0.00 38 1009.5
20260508171630 71 240 3.0 4.0 0.00 0.00 0.00 38 1009.5
20260508171155 71 189 1.0 4.0 0.00 0.00 0.00 37 1009.6
20260508170623 70 108 1.0 3.0 0.00 0.00 0.00 39 1009.6
20260508170159 70 283 2.0 4.0 0.00 0.00 0.00 38 1009.7
20260508165621 70 216 1.0 6.0 0.00 0.00 0.00 39 1008.7
20260508165137 70 176 3.0 6.0 0.00 0.00 0.00 38 1008.8
20260508164622 69 177 1.0 4.0 0.00 0.00 0.00 39 1008.8
20260508164121 69 329 2.0 4.0 0.00 0.00 0.00 39 1008.9
20260508163644 69 243 3.0 6.0 0.00 0.00 0.00 39 1008.9
20260508163120 69 202 3.0 6.0 0.00 0.00 0.00 39 1008.9
20260508162644 68 241 1.0 6.0 0.00 0.00 0.00 39 1008.8
20260508162118 68 242 2.0 7.0 0.00 0.00 0.00 39 1008.8
20260508161624 68 237 3.0 8.0 0.00 0.00 0.00 40 1008.8
20260508161123 69 251 3.0 8.0 0.00 0.00 0.00 40 1008.9
20260508160632 68 250 2.0 7.0 0.00 0.00 0.00 40 1009.0
20260508160134 68 300 4.0 7.0 0.00 0.00 0.00 41 1009.0
20260508155626 68 246 3.0 7.0 0.00 0.00 0.00 43 1009.0
20260508155125 68 300 3.0 7.0 0.00 0.00 0.00 44 1009.0
20260508154632 68 235 2.0 6.0 0.00 0.00 0.00 45 1009.0
20260508154130 68 268 2.0 6.0 0.00 0.00 0.00 46 1009.0
20260508153621 68 180 1.0 6.0 0.00 0.00 0.00 46 1009.0
20260508153122 68 222 1.0 6.0 0.00 0.00 0.00 44 1009.0
20260508152626 68 199 3.0 6.0 0.00 0.00 0.00 46 1009.0
20260508152147 68 246 3.0 4.0 0.00 0.00 0.00 42 1009.1
20260508151629 68 197 2.0 4.0 0.00 0.00 0.00 40 1009.1
20260508151129 68 221 2.0 4.0 0.00 0.00 0.00 41 1009.1
20260508150633 67 19 1.0 3.0 0.00 0.00 0.00 44 1009.1
20260508150116 66 260 1.0 3.0 0.00 0.00 0.00 44 1009.2
20260508145622 66 260 2.0 3.0 0.00 0.00 0.00 45 1009.2
20260508145126 65 216 0.0 5.0 0.00 0.00 0.00 48 1009.2
20260508144629 64 216 1.0 5.0 0.00 0.00 0.00 47 1009.3
20260508144135 64 245 2.0 4.0 0.00 0.00 0.00 48 1009.4
20260508143621 63 224 1.0 3.0 0.00 0.00 0.00 49 1009.5
20260508143138 63 222 1.0 3.0 0.00 0.00 0.00 50 1009.5
20260508142624 62 229 3.0 4.0 0.00 0.00 0.00 50 1009.6
20260508142122 62 168 1.0 5.0 0.00 0.00 0.00 50 1009.6
20260508141626 61 150 1.0 5.0 0.00 0.00 0.00 50 1009.6
20260508141124 60 135 0.0 5.0 0.00 0.00 0.00 52 1009.6
20260508140627 59 129 2.0 5.0 0.00 0.00 0.00 58 1009.6
20260508140125 58 106 0.0 1.0 0.00 0.00 0.00 61 1009.6
20260508135648 57 106 0.0 0.0 0.00 0.00 0.00 60 1009.7
20260508135126 56 106 0.0 0.0 0.00 0.00 0.00 60 1009.7
20260508134633 55 106 0.0 0.0 0.00 0.00 0.00 62 1009.8
20260508134150 55 106 0.0 0.0 0.00 0.00 0.00 62 1009.8
20260508133633 55 106 0.0 0.0 0.00 0.00 0.00 62 1009.9
20260508133132 54 106 0.0 0.0 0.00 0.00 0.00 64 1009.9
20260508132636 54 106 0.0 0.0 0.00 0.00 0.00 64 1009.8
20260508132119 54 106 0.0 2.0 0.00 0.00 0.00 64 1009.7
20260508131626 54 106 0.0 2.0 0.00 0.00 0.00 64 1009.5
20260508131147 54 106 0.0 1.0 0.00 0.00 0.00 64 1009.5
20260508130632 54 106 0.0 0.0 0.00 0.00 0.00 64 1009.3
20260508130131 54 106 0.0 0.0 0.00 0.00 0.00 63 1009.4
20260508125655 54 106 0.0 0.0 0.00 0.00 0.00 63 1009.3
20260508125131 54 106 0.0 0.0 0.00 0.00 0.00 62 1009.2
20260508124635 54 106 0.0 0.0 0.00 0.00 0.00 61 1009.2
20260508124149 54 106 0.0 1.0 0.00 0.00 0.00 63 1009.3
20260508123639 54 106 1.0 1.0 0.00 0.00 0.00 63 1009.3
20260508123119 53 106 0.0 1.0 0.00 0.00 0.00 63 1009.2
20260508122625 53 106 0.0 1.0 0.00 0.00 0.00 63 1009.2
20260508122124 53 106 0.0 1.0 0.00 0.00 0.00 61 1009.0
20260508121628 53 106 0.0 4.0 0.00 0.00 0.00 62 1009.1